CW8443 Weather Reports


Display with metric or nautical units.
time (UTC)temp
F
wind
direction
speed
MPH
gust
MPH
rain 1hr
in
rain 24hr
in
rain mn
in
humidity
%
barometer
mb
20260510112741 64 161 0.0 0.0 0.00 0.00 0.00 68 1016.4
20260510112252 64 161 0.0 0.0 0.00 0.00 0.00 67 1016.4
20260510111239 64 144 0.0 0.0 0.00 0.00 0.00 66 1016.4
20260510110751 64 146 0.0 0.0 0.00 0.00 0.00 66 1016.4
20260510110137 65 172 0.0 0.0 0.00 0.00 0.00 65 1016.4
20260510105238 65 172 0.0 0.0 0.00 0.00 0.00 65 1016.2
20260510104753 65 170 0.0 0.0 0.00 0.00 0.00 64 1016.2
20260510104244 65 168 0.0 0.0 0.00 0.00 0.00 64 1016.0
20260510103253 65 172 0.0 0.0 0.00 0.00 0.00 63 1016.0
20260510102741 65 166 0.0 0.0 0.00 0.00 0.00 62 1015.8
20260510102252 65 158 0.0 0.0 0.00 0.00 0.00 62 1015.8
20260510101237 65 186 0.0 0.0 0.00 0.00 0.00 61 1015.5
20260510100750 66 168 0.0 0.0 0.00 0.00 0.00 61 1015.5
20260510100250 66 166 0.0 0.0 0.00 0.00 0.00 60 1015.5
20260510100134 66 170 0.0 0.0 0.00 0.00 0.00 60 1015.5
20260510095737 66 202 0.0 0.0 0.00 0.00 0.00 60 1015.4
20260510095248 66 180 0.0 0.0 0.00 0.00 0.00 60 1015.4
20260510094737 66 139 0.0 0.0 0.00 0.00 0.00 59 1015.4
20260510094247 66 151 0.0 0.0 0.00 0.00 0.00 58 1015.2
20260510093737 66 178 0.0 0.0 0.00 0.00 0.00 57 1015.2
20260510093238 67 168 0.0 0.0 0.00 0.00 0.00 57 1015.2
20260510093142 67 216 0.0 0.0 0.00 0.00 0.00 57 1015.2
20260510092744 67 189 0.0 0.0 0.00 0.00 0.00 56 1015.0
20260510092254 67 180 0.0 0.0 0.00 0.00 0.00 56 1015.0
20260510091750 67 182 0.0 0.0 0.00 0.00 0.00 56 1015.0
20260510090751 67 173 0.0 0.0 0.00 0.00 0.00 54 1015.0
20260510090244 68 187 0.0 0.0 0.00 0.00 0.00 54 1015.0
20260510090132 68 166 0.0 0.0 0.00 0.00 0.00 54 1015.0
20260510085749 68 166 0.0 0.0 0.00 0.00 0.00 53 1014.8
20260510085240 68 169 0.0 0.0 0.00 0.00 0.00 53 1014.8
20260510084249 68 250 0.0 0.0 0.00 0.00 0.00 52 1014.7
20260510083739 68 210 0.0 0.0 0.00 0.00 0.00 51 1014.7
20260510083301 69 176 0.0 0.0 0.00 0.00 0.00 50 1014.7
20260510082749 69 185 0.0 0.0 0.00 0.00 0.00 50 1014.8
20260510082239 69 216 0.0 0.0 0.00 0.00 0.00 50 1014.8
20260510081736 69 170 0.0 0.0 0.00 0.00 0.00 49 1014.8
20260510081246 69 186 0.0 0.0 0.00 0.00 0.00 48 1014.6
20260510080735 69 138 0.0 0.0 0.00 0.00 0.00 48 1014.6
20260510080252 69 175 0.0 0.0 0.00 0.00 0.00 47 1014.6
20260510080136 69 178 0.0 0.0 0.00 0.00 0.00 47 1014.6
20260510075738 70 227 0.0 0.0 0.00 0.00 0.00 47 1014.4
20260510074743 70 158 0.0 0.0 0.00 0.00 0.00 46 1014.4
20260510074253 70 251 0.0 0.0 0.00 0.00 0.00 46 1014.3
20260510073742 71 139 0.0 0.0 0.00 0.00 0.00 44 1014.3
20260510073239 71 182 0.0 0.0 0.00 0.00 0.00 44 1014.3
20260510073143 71 192 0.0 0.0 0.00 0.00 0.00 44 1014.3
20260510072745 71 162 0.0 0.0 0.00 0.00 0.00 44 1014.3
20260510072237 71 204 0.0 0.0 0.00 0.00 0.00 43 1014.3
20260510071746 72 173 0.0 0.0 0.00 0.00 0.00 42 1014.3
20260510071236 72 187 0.0 0.0 0.00 0.00 0.00 42 1014.1
20260510070754 72 182 0.0 0.0 0.00 0.00 0.00 41 1014.1
20260510070255 72 163 0.0 0.0 0.00 0.00 0.00 40 1014.1
20260510070139 72 183 0.0 0.0 0.00 0.00 0.00 41 1014.1
20260510065740 72 169 0.0 0.0 0.00 0.00 0.00 41 1014.2
20260510065250 72 148 0.0 0.0 0.00 0.00 0.00 39 1014.2
20260510064745 73 170 0.0 0.0 0.00 0.00 0.00 37 1014.2
20260510064236 73 168 0.0 0.0 0.00 0.00 0.00 36 1014.2
20260510063746 73 187 0.0 0.0 0.00 0.00 0.00 33 1014.2
20260510063245 74 186 0.0 0.0 0.00 0.00 0.00 33 1014.2
20260510062748 73 180 0.0 0.0 0.00 0.00 0.00 31 1014.2
20260510062238 74 178 0.0 0.0 0.00 0.00 0.00 30 1014.2
20260510061751 74 145 0.0 0.0 0.00 0.00 0.00 29 1014.2
20260510061241 74 131 0.0 0.0 0.00 0.00 0.00 30 1014.0
20260510060739 74 170 0.0 0.0 0.00 0.00 0.00 28 1014.0
20260510060238 75 176 0.0 0.0 0.00 0.00 0.00 27 1014.0
20260510060142 75 213 0.0 0.0 0.00 0.00 0.00 28 1014.0
20260510055744 74 158 0.0 0.0 0.00 0.00 0.00 28 1014.2
20260510055237 74 213 0.0 0.0 0.00 0.00 0.00 27 1014.2
20260510054751 74 139 0.0 0.0 0.00 0.00 0.00 27 1014.2
20260510054240 75 189 0.0 0.0 0.00 0.00 0.00 27 1014.3
20260510053753 75 281 0.0 0.0 0.00 0.00 0.00 27 1014.3
20260510053249 75 187 0.0 0.0 0.00 0.00 0.00 27 1014.3
20260510053137 75 266 0.0 0.0 0.00 0.00 0.00 27 1014.3
20260510052755 75 180 0.0 0.0 0.00 0.00 0.00 28 1014.4
20260510052245 74 192 0.0 0.0 0.00 0.00 0.00 28 1014.4
20260510051739 74 152 0.0 0.0 0.00 0.00 0.00 28 1014.4
20260510051249 74 187 0.0 0.0 0.00 0.00 0.00 27 1014.3
20260510050250 75 158 0.0 0.0 0.00 0.00 0.00 28 1014.3
20260510050134 75 115 0.0 0.0 0.00 0.00 0.00 28 1014.3
20260510045250 76 103 0.0 0.0 0.00 0.00 0.00 27 1014.4
20260510044740 75 132 0.0 0.0 0.00 0.00 0.00 28 1014.4
20260510044251 75 170 0.0 0.0 0.00 0.00 0.00 28 1014.6
20260510043740 76 173 0.0 0.0 0.00 0.00 0.00 27 1014.6
20260510043240 76 137 0.0 0.0 0.00 0.00 0.00 25 1014.6
20260510043143 76 175 0.0 0.0 0.00 0.00 0.00 25 1014.6
20260510042745 77 131 0.0 0.0 0.00 0.00 0.00 22 1014.8
20260510042236 76 104 0.0 0.0 0.00 0.00 0.00 22 1014.8
20260510041748 76 137 0.0 0.0 0.00 0.00 0.00 22 1014.8
20260510041240 75 152 0.0 0.0 0.00 0.00 0.00 21 1014.9
20260510040752 75 124 0.0 0.0 0.00 0.00 0.00 22 1014.9
20260510040253 75 137 0.0 0.0 0.00 0.00 0.00 22 1014.9
20260510040137 75 149 0.0 0.0 0.00 0.00 0.00 22 1014.9
20260510035739 76 218 0.0 0.0 0.00 0.00 0.00 22 1014.9
20260510035245 76 65 0.0 0.0 0.00 0.00 0.00 22 1014.9
20260510034738 75 62 0.0 0.0 0.00 0.00 0.00 23 1014.9
20260510034248 75 86 0.0 0.0 0.00 0.00 0.00 24 1015.2
20260510033738 74 161 0.0 0.0 0.00 0.00 0.00 24 1015.2
20260510033238 75 139 0.0 0.0 0.00 0.00 0.00 24 1015.2
20260510033141 75 125 0.0 0.0 0.00 0.00 0.00 24 1015.2
20260510032744 74 83 0.0 0.0 0.00 0.00 0.00 23 1015.4
20260510032253 75 114 0.0 0.0 0.00 0.00 0.00 23 1015.5
20260510031747 74 106 0.0 0.0 0.00 0.00 0.00 24 1015.4
20260510031240 74 138 0.0 0.0 0.00 0.00 0.00 23 1015.6
20260510030740 74 137 0.0 0.0 0.00 0.00 0.00 24 1015.6
20260510030129 74 165 0.0 0.0 0.00 0.00 0.00 23 1015.6
20260510025749 75 203 0.0 0.0 0.00 0.00 0.00 22 1015.9
20260510025238 74 101 0.0 0.0 0.00 0.00 0.00 23 1015.9
20260510024752 74 135 0.0 0.0 0.00 0.00 0.00 24 1015.9
20260510024241 74 120 0.0 0.0 0.00 0.00 0.00 23 1015.9
20260510023750 74 122 0.0 0.0 0.00 0.00 0.00 23 1015.9
20260510023248 74 87 0.0 0.0 0.00 0.00 0.00 22 1015.9
20260510022736 74 17 0.0 0.0 0.00 0.00 0.00 21 1016.1
20260510022245 75 100 0.0 0.0 0.00 0.00 0.00 20 1016.1
20260510021252 74 52 0.0 0.0 0.00 0.00 0.00 20 1016.4
20260510020746 73 80 0.0 0.0 0.00 0.00 0.00 21 1016.4
20260510020133 73 62 0.0 0.0 0.00 0.00 0.00 22 1016.4
20260510015248 72 77 0.0 0.0 0.00 0.00 0.00 22 1016.5
20260510014742 72 108 0.0 0.0 0.00 0.00 0.00 22 1016.5
20260510014252 72 84 0.0 0.0 0.00 0.00 0.00 22 1016.6
20260510013740 71 108 0.0 0.0 0.00 0.00 0.00 21 1016.6
20260510013242 72 107 0.0 0.0 0.00 0.00 0.00 21 1016.7
20260510013145 72 108 0.0 0.0 0.00 0.00 0.00 21 1016.7
20260510012743 71 86 0.0 0.0 0.00 0.00 0.00 20 1016.9
20260510012252 71 80 0.0 0.0 0.00 0.00 0.00 21 1016.9
20260510011748 71 84 0.0 0.0 0.00 0.00 0.00 21 1016.9
20260510011238 70 49 0.0 0.0 0.00 0.00 0.00 20 1016.9
20260510010753 71 55 0.0 0.0 0.00 0.00 0.00 20 1016.9
20260510010252 70 52 0.0 0.0 0.00 0.00 0.00 20 1016.9
20260510010137 70 69 0.0 0.0 0.00 0.00 0.00 20 1016.9
20260510005237 70 354 0.0 0.0 0.00 0.00 0.00 21 1017.0
20260510004753 70 340 0.0 0.0 0.00 0.00 0.00 21 1017.0
20260510004243 70 355 0.0 0.0 0.00 0.00 0.00 22 1017.0
20260510003752 70 34 0.0 0.0 0.00 0.00 0.00 21 1017.0
20260510003247 70 358 0.0 0.0 0.00 0.00 0.00 22 1017.0
20260510002247 69 29 0.0 0.0 0.00 0.00 0.00 22 1017.0
20260510001743 69 36 0.0 0.0 0.00 0.00 0.00 22 1017.0
20260510001252 69 329 0.0 0.0 0.00 0.00 0.00 21 1016.9
20260510000751 69 50 0.0 0.0 0.00 0.00 0.00 22 1016.9
20260510000249 68 344 0.0 0.0 0.00 0.00 0.00 22 1016.9
20260510000134 68 1 0.0 0.0 0.00 0.00 0.00 22 1016.9
20260509235735 68 343 0.0 0.0 0.00 0.00 0.00 22 1017.0
20260509235241 68 49 0.0 0.0 0.00 0.00 0.00 23 1017.0
20260509234248 68 331 0.0 0.0 0.00 0.00 0.00 21 1017.0
20260509233737 67 36 0.0 0.0 0.00 0.00 0.00 22 1017.0
20260509233143 67 331 0.0 0.0 0.00 0.00 0.00 23 1017.0
20260509232244 67 358 0.0 0.0 0.00 0.00 0.00 24 1016.9
20260509231741 66 357 0.0 0.0 0.00 0.00 0.00 24 1016.9
20260509231252 66 42 0.0 0.0 0.00 0.00 0.00 24 1016.7
20260509230746 66 10 0.0 0.0 0.00 0.00 0.00 25 1016.7
20260509230245 65 28 0.0 0.0 0.00 0.00 0.00 25 1016.7
20260509230132 65 18 0.0 0.0 0.00 0.00 0.00 25 1016.7
20260509225751 65 351 0.0 0.0 0.00 0.00 0.00 26 1016.6
20260509225241 65 326 0.0 0.0 0.00 0.00 0.00 28 1016.6
20260509224736 64 329 0.0 0.0 0.00 0.00 0.00 28 1016.6
20260509224247 64 354 0.0 0.0 0.00 0.00 0.00 28 1016.5
20260509223740 64 337 0.0 0.0 0.00 0.00 0.00 28 1016.5
20260509223240 64 348 0.0 0.0 0.00 0.00 0.00 30 1016.5
20260509223143 64 25 0.0 0.0 0.00 0.00 0.00 30 1016.5
20260509222745 64 358 0.0 0.0 0.00 0.00 0.00 30 1016.5
20260509222235 63 10 0.0 0.0 0.00 0.00 0.00 31 1016.5
20260509221750 63 351 0.0 0.0 0.00 0.00 0.00 32 1016.5
20260509220238 62 7 0.0 0.0 0.00 0.00 0.00 32 1016.5
20260509220144 62 17 0.0 0.0 0.00 0.00 0.00 33 1016.5
20260509215746 61 21 0.0 0.0 0.00 0.00 0.00 35 1016.4
20260509215237 61 10 0.0 0.0 0.00 0.00 0.00 38 1016.4
20260509214751 60 1 0.0 0.0 0.00 0.00 0.00 39 1016.4
20260509214239 60 4 0.0 0.0 0.00 0.00 0.00 46 1016.3
20260509213752 59 4 0.0 0.0 0.00 0.00 0.00 47 1016.3
20260509213249 58 5 0.0 0.0 0.00 0.00 0.00 49 1016.3
20260509213133 58 4 0.0 0.0 0.00 0.00 0.00 49 1016.3
20260509212736 58 4 0.0 0.0 0.00 0.00 0.00 53 1016.1
20260509212245 57 4 0.0 0.0 0.00 0.00 0.00 53 1016.1
20260509211236 56 4 0.0 0.0 0.00 0.00 0.00 57 1015.9
20260509210737 55 5 0.0 0.0 0.00 0.00 0.00 58 1015.9
20260509210143 54 5 0.0 0.0 0.00 0.00 0.00 60 1015.9
20260509205744 53 5 0.0 0.0 0.00 0.00 0.00 60 1015.9
20260509204752 52 5 0.0 0.0 0.00 0.00 0.00 62 1015.9
20260509204243 52 5 0.0 0.0 0.00 0.00 0.00 62 1015.8
20260509203749 52 5 0.0 0.0 0.00 0.00 0.00 62 1015.8
20260509203249 51 5 0.0 0.0 0.00 0.00 0.00 62 1015.8
20260509203133 51 5 0.0 0.0 0.00 0.00 0.00 62 1015.8
20260509202735 51 5 0.0 0.0 0.00 0.00 0.00 62 1015.4
20260509202246 51 5 0.0 0.0 0.00 0.00 0.00 62 1015.4
20260509201741 51 5 0.0 0.0 0.00 0.00 0.00 62 1015.4
20260509201252 51 5 0.0 0.0 0.00 0.00 0.00 61 1015.3
20260509200745 51 5 0.0 0.0 0.00 0.00 0.00 61 1015.3
20260509200136 51 5 0.0 0.0 0.00 0.00 0.00 60 1015.3
20260509195246 51 5 0.0 0.0 0.00 0.00 0.00 59 1015.1
20260509194740 52 5 0.0 0.0 0.00 0.00 0.00 59 1015.1
20260509194253 52 5 0.0 0.0 0.00 0.00 0.00 59 1014.9
20260509193743 52 5 0.0 0.0 0.00 0.00 0.00 59 1014.9
20260509193243 52 5 0.0 0.0 0.00 0.00 0.00 58 1014.9
20260509193127 52 5 0.0 0.0 0.00 0.00 0.00 58 1014.9
20260509192750 52 5 0.0 0.0 0.00 0.00 0.00 58 1014.7
20260509192241 52 5 0.0 0.0 0.00 0.00 0.00 58 1014.7
20260509191735 52 5 0.0 0.0 0.00 0.00 0.00 57 1014.7
20260509190746 53 5 0.0 0.0 0.00 0.00 0.00 57 1014.5
20260509190244 53 5 0.0 0.0 0.00 0.00 0.00 56 1014.5
20260509190128 53 5 0.0 0.0 0.00 0.00 0.00 56 1014.5
20260509185747 53 5 0.0 0.0 0.00 0.00 0.00 57 1014.4
20260509185237 52 5 0.0 0.0 0.00 0.00 0.00 57 1014.4
20260509184753 52 5 0.0 0.0 0.00 0.00 0.00 57 1014.4
20260509184243 52 5 0.0 0.0 0.00 0.00 0.00 57 1014.3
20260509183238 52 5 0.0 0.0 0.00 0.00 0.00 57 1014.3
20260509183142 52 5 0.0 0.0 0.00 0.00 0.00 57 1014.3
20260509182241 52 5 0.0 0.0 0.00 0.00 0.00 57 1014.2
20260509181247 52 5 0.0 0.0 0.00 0.00 0.00 56 1014.1
20260509180740 52 5 0.0 0.0 0.00 0.00 0.00 57 1014.1
20260509180243 52 5 0.0 0.0 0.00 0.00 0.00 56 1014.1
20260509180127 52 5 0.0 0.0 0.00 0.00 0.00 57 1014.1
20260509175750 52 5 0.0 0.0 0.00 0.00 0.00 57 1013.8
20260509174739 52 5 0.0 0.0 0.00 0.00 0.00 55 1013.8
20260509174253 52 5 0.0 0.0 0.00 0.00 0.00 55 1013.8
20260509173744 52 5 0.0 0.0 0.00 0.00 0.00 55 1013.8
20260509173243 52 5 0.0 0.0 0.00 0.00 0.00 55 1013.8
20260509173127 52 5 0.0 0.0 0.00 0.00 0.00 55 1013.8
20260509172749 53 5 0.0 0.0 0.00 0.00 0.00 54 1013.6
20260509172239 53 5 0.0 0.0 0.00 0.00 0.00 54 1013.6
20260509171750 53 5 0.0 0.0 0.00 0.00 0.00 53 1013.6
20260509170744 53 5 0.0 0.0 0.00 0.00 0.00 53 1013.5
20260509170244 53 5 0.0 0.0 0.00 0.00 0.00 53 1013.5
20260509170128 53 5 0.0 0.0 0.00 0.00 0.00 53 1013.5
20260509165751 53 5 0.0 0.0 0.00 0.00 0.00 53 1013.6
20260509165239 53 5 0.0 0.0 0.00 0.00 0.00 53 1013.6
20260509164737 53 5 0.0 0.0 0.00 0.00 0.00 52 1013.6
20260509164246 53 5 0.0 0.0 0.00 0.00 0.00 52 1013.5
20260509163737 54 5 0.0 0.0 0.00 0.00 0.00 50 1013.5
20260509163239 54 5 0.0 0.0 0.00 0.00 0.00 50 1013.5
20260509163143 54 5 0.0 0.0 0.00 0.00 0.00 50 1013.5
20260509162744 54 5 0.0 0.0 0.00 0.00 0.00 50 1013.5
20260509162254 54 5 0.0 0.0 0.00 0.00 0.00 50 1013.5
20260509161748 54 5 0.0 0.0 0.00 0.00 0.00 50 1013.5
20260509160737 54 5 0.0 0.0 0.00 0.00 0.00 49 1013.3
20260509160128 54 5 0.0 0.0 0.00 0.00 0.00 49 1013.3
20260509155749 55 5 0.0 0.0 0.00 0.00 0.00 49 1013.4
20260509155241 55 5 0.0 0.0 0.00 0.00 0.00 49 1013.4
20260509154735 55 5 0.0 0.0 0.00 0.00 0.00 48 1013.4
20260509154247 55 5 0.0 0.0 0.00 0.00 0.00 47 1013.3
20260509153737 55 5 0.0 0.0 0.00 0.00 0.00 47 1013.3
20260509153253 55 5 0.0 0.0 0.00 0.00 0.00 47 1013.3
20260509153142 56 7 0.0 0.0 0.00 0.00 0.00 47 1013.3
20260509152741 56 5 0.0 0.0 0.00 0.00 0.00 46 1013.4
20260509152252 56 5 0.0 0.0 0.00 0.00 0.00 45 1013.4
20260509151747 56 5 0.0 0.0 0.00 0.00 0.00 45 1013.4
20260509151239 56 5 0.0 0.0 0.00 0.00 0.00 44 1013.4
20260509150736 56 5 0.0 0.0 0.00 0.00 0.00 44 1013.4
20260509150129 56 5 0.0 0.0 0.00 0.00 0.00 43 1013.4
20260509145751 56 5 0.0 0.0 0.00 0.00 0.00 43 1013.3
20260509144736 57 7 0.0 0.0 0.00 0.00 0.00 43 1013.3
20260509143741 57 5 0.0 0.0 0.00 0.00 0.00 41 1013.2
20260509143243 57 7 0.0 0.0 0.00 0.00 0.00 40 1013.2
20260509143126 57 5 0.0 0.0 0.00 0.00 0.00 40 1013.2
20260509142749 57 7 0.0 0.0 0.00 0.00 0.00 40 1012.9
20260509142241 57 5 0.0 0.0 0.00 0.00 0.00 40 1012.9
20260509141736 57 7 0.0 0.0 0.00 0.00 0.00 40 1012.9
20260509141245 57 5 0.0 0.0 0.00 0.00 0.00 40 1012.8
20260509140742 58 5 0.0 0.0 0.00 0.00 0.00 40 1012.8
20260509140240 58 5 0.0 0.0 0.00 0.00 0.00 39 1012.8
20260509140143 58 5 0.0 0.0 0.00 0.00 0.00 39 1012.8
20260509135742 58 5 0.0 0.0 0.00 0.00 0.00 39 1012.6
20260509135252 58 5 0.0 0.0 0.00 0.00 0.00 38 1012.6
20260509134746 58 5 0.0 0.0 0.00 0.00 0.00 38 1012.6
20260509134236 58 5 0.0 0.0 0.00 0.00 0.00 38 1012.7
20260509133745 58 5 0.0 0.0 0.00 0.00 0.00 37 1012.7
20260509133244 59 7 0.0 0.0 0.00 0.00 0.00 36 1012.7
20260509132753 59 5 0.0 0.0 0.00 0.00 0.00 35 1012.6
20260509132243 59 8 0.0 0.0 0.00 0.00 0.00 34 1012.6
20260509131736 60 25 0.0 0.0 0.00 0.00 0.00 34 1012.6
20260509131246 60 38 0.0 0.0 0.00 0.00 0.00 33 1012.3
20260509130739 60 38 0.0 0.0 0.00 0.00 0.00 32 1012.3
20260509130254 60 38 0.0 0.0 0.00 0.00 0.00 30 1012.3
20260509130137 60 38 0.0 0.0 0.00 0.00 0.00 30 1012.3
20260509125235 61 38 0.0 0.0 0.00 0.00 0.00 28 1012.2
20260509124748 61 38 0.0 0.0 0.00 0.00 0.00 28 1012.2
20260509124239 61 38 0.0 0.0 0.00 0.00 0.00 28 1012.1
20260509123749 61 38 0.0 0.0 0.00 0.00 0.00 28 1012.1
20260509123247 61 38 0.0 0.0 0.00 0.00 0.00 27 1012.1
20260509122736 62 38 0.0 0.0 0.00 0.00 0.00 27 1012.2
20260509122245 62 38 0.0 0.0 0.00 0.00 0.00 27 1012.2
20260509121734 62 38 0.0 0.0 0.00 0.00 0.00 27 1012.2
20260509120749 62 38 0.0 0.0 0.00 0.00 0.00 25 1012.2
20260509120248 62 41 0.0 0.0 0.00 0.00 0.00 25 1012.2
20260509120132 62 39 0.0 0.0 0.00 0.00 0.00 25 1012.2
20260509115753 62 39 0.0 0.0 0.00 0.00 0.00 25 1012.0
20260509115241 63 41 0.0 0.0 0.00 0.00 0.00 25 1012.0
20260509114735 63 39 0.0 0.0 0.00 0.00 0.00 26 1012.0
20260509114245 63 41 0.0 0.0 0.00 0.00 0.00 26 1011.9
20260509113738 63 39 0.0 0.0 0.00 0.00 0.00 24 1011.9
20260509113235 63 39 0.0 0.0 0.00 0.00 0.00 24 1011.9
20260509113139 63 41 0.0 0.0 0.00 0.00 0.00 24 1011.9
20260509112737 63 39 0.0 0.0 0.00 0.00 0.00 24 1011.6
20260509112248 64 39 0.0 0.0 0.00 0.00 0.00 24 1011.6
20260509111742 64 39 0.0 0.0 0.00 0.00 0.00 23 1011.6
20260509111253 64 39 0.0 0.0 0.00 0.00 0.00 23 1011.3
20260509110748 64 39 0.0 0.0 0.00 0.00 0.00 24 1011.3
20260509110244 64 39 0.0 0.0 0.00 0.00 0.00 23 1011.3
20260509105752 65 39 0.0 0.0 0.00 0.00 0.00 22 1011.3
20260509105242 65 39 0.0 0.0 0.00 0.00 0.00 22 1011.3
20260509104249 65 39 0.0 0.0 0.00 0.00 0.00 22 1010.9
20260509103738 65 38 0.0 0.0 0.00 0.00 0.00 22 1010.9
20260509103239 65 18 0.0 0.0 0.00 0.00 0.00 21 1010.9
20260509103125 65 22 0.0 0.0 0.00 0.00 0.00 21 1010.9
20260509102752 65 24 0.0 0.0 0.00 0.00 0.00 21 1010.6
20260509102241 66 1 0.0 0.0 0.00 0.00 0.00 21 1010.6
20260509101737 66 24 0.0 0.0 0.00 0.00 0.00 21 1010.6
20260509101247 66 347 0.0 0.0 0.00 0.00 0.00 21 1010.3
20260509100741 66 1 0.0 0.0 0.00 0.00 0.00 20 1010.3
20260509100240 66 350 0.0 0.0 0.00 0.00 0.00 21 1010.3
20260509100144 66 41 0.0 0.0 0.00 0.00 0.00 21 1010.3
20260509095746 66 15 0.0 0.0 0.00 0.00 0.00 20 1010.1
20260509094753 67 26 0.0 0.0 0.00 0.00 0.00 20 1010.1
20260509094244 67 12 0.0 0.0 0.00 0.00 0.00 20 1009.9
20260509093249 67 35 0.0 0.0 0.00 0.00 0.00 20 1009.9
20260509092736 67 41 0.0 0.0 0.00 0.00 0.00 20 1009.7
20260509091747 68 28 0.0 0.0 0.00 0.00 0.00 20 1009.7
20260509091239 68 322 0.0 0.0 0.00 0.00 0.00 19 1009.3
20260509090753 68 5 0.0 0.0 0.00 0.00 0.00 19 1009.3
20260509090250 69 333 0.0 0.0 0.00 0.00 0.00 19 1009.4
20260509090134 69 338 0.0 0.0 0.00 0.00 0.00 19 1009.4
20260509085739 69 41 0.0 0.0 0.00 0.00 0.00 19 1009.0
20260509085247 70 34 0.0 0.0 0.00 0.00 0.00 19 1009.0
20260509084742 70 355 0.0 0.0 0.00 0.00 0.00 19 1009.0
20260509084251 70 1 0.0 0.0 0.00 0.00 0.00 19 1008.6
20260509083740 70 38 0.0 0.0 0.00 0.00 0.00 19 1008.6
20260509083237 71 46 0.0 0.0 0.00 0.00 0.00 18 1008.6
20260509083141 71 49 0.0 0.0 0.00 0.00 0.00 18 1008.6
20260509082741 71 25 0.0 0.0 0.00 0.00 0.00 18 1008.4
20260509082248 71 45 0.0 0.0 0.00 0.00 0.00 19 1008.4
20260509081741 71 25 0.0 0.0 0.00 0.00 0.00 18 1008.4
20260509081252 72 31 0.0 0.0 0.00 0.00 0.00 18 1008.1
20260509080745 72 32 0.0 0.0 0.00 0.00 0.00 18 1008.1
20260509080242 72 32 0.0 0.0 0.00 0.00 0.00 19 1008.1
20260509080146 72 28 0.0 0.0 0.00 0.00 0.00 18 1008.1
20260509075742 72 323 0.0 0.0 0.00 0.00 0.00 19 1007.9
20260509075253 72 45 0.0 0.0 0.00 0.00 0.00 19 1007.9
20260509074750 72 358 0.0 0.0 0.00 0.00 0.00 19 1007.9
20260509074236 72 21 0.0 0.0 0.00 0.00 0.00 19 1007.5
20260509073744 72 341 0.0 0.0 0.00 0.00 0.00 19 1007.5
20260509073241 73 350 0.0 0.0 0.00 0.00 0.00 19 1007.5
20260509073145 73 344 0.0 0.0 0.00 0.00 0.00 19 1007.5
20260509072240 73 351 0.0 0.0 0.00 0.00 0.00 19 1007.0
20260509071737 73 357 0.0 0.0 0.00 0.00 0.00 19 1007.0
20260509071245 73 12 0.0 0.0 0.00 0.00 0.00 19 1006.7
20260509070738 73 2 0.0 0.0 0.00 0.00 0.00 19 1006.7
20260509070258 74 348 0.0 0.0 0.00 0.00 0.00 19 1006.7
20260509065241 74 348 0.0 0.0 0.00 0.00 0.00 19 1006.4
20260509064738 74 322 0.0 0.0 0.00 0.00 0.00 19 1006.4
20260509064246 74 358 0.0 0.0 0.00 0.00 0.00 18 1006.5
20260509063127 74 39 0.0 0.0 0.00 0.00 0.00 18 1006.5
20260509062749 74 353 0.0 0.0 0.00 0.00 0.00 18 1006.5
20260509062237 74 350 0.0 0.0 0.00 0.00 0.00 18 1006.5
20260509061754 75 354 0.0 0.0 0.00 0.00 0.00 18 1006.5
20260509061242 74 317 0.0 0.0 0.00 0.00 0.00 18 1006.4
20260509060740 74 344 0.0 0.0 0.00 0.00 0.00 18 1006.4
20260509060237 74 344 0.0 0.0 0.00 0.00 0.00 18 1006.4
20260509060141 73 24 0.0 0.0 0.00 0.00 0.00 18 1006.4
20260509055737 73 337 0.0 0.0 0.00 0.00 0.00 18 1006.2
20260509054749 74 338 0.0 0.0 0.00 0.00 0.00 18 1006.2
20260509053237 74 305 0.0 0.0 0.00 0.00 0.00 20 1006.2
20260509053140 74 351 0.0 0.0 0.00 0.00 0.00 20 1006.2
20260509052744 74 18 0.0 0.0 0.00 0.00 0.00 21 1006.3
20260509052252 74 34 0.0 0.0 0.00 0.00 0.00 21 1006.3
20260509051744 74 344 0.0 0.0 0.00 0.00 0.00 21 1006.3
20260509051235 74 348 0.0 0.0 0.00 0.00 0.00 21 1006.3
20260509050744 74 338 0.0 0.0 0.00 0.00 0.00 21 1006.3
20260509050240 74 48 0.0 0.0 0.00 0.00 0.00 21 1006.3
20260509050144 74 4 0.0 0.0 0.00 0.00 0.00 20 1006.3
20260509045744 75 331 0.0 0.0 0.00 0.00 0.00 21 1006.3
20260509045254 75 22 0.0 0.0 0.00 0.00 0.00 21 1006.3
20260509044747 74 17 0.0 0.0 0.00 0.00 0.00 22 1006.3
20260509044237 74 39 0.0 0.0 0.00 0.00 0.00 21 1006.4
20260509043747 74 17 0.0 0.0 0.00 0.00 0.00 22 1006.4
20260509043137 74 10 0.0 0.0 0.00 0.00 0.00 22 1006.4
20260509042741 73 355 0.0 0.0 0.00 0.00 0.00 21 1006.2
20260509042247 74 314 0.0 0.0 0.00 0.00 0.00 22 1006.2
20260509041741 74 322 0.0 0.0 0.00 0.00 0.00 21 1006.2
20260509040752 73 351 0.0 0.0 0.00 0.00 0.00 23 1006.4
20260509040250 73 46 0.0 0.0 0.00 0.00 0.00 24 1006.4
20260509040134 73 45 0.0 0.0 0.00 0.00 0.00 24 1006.4
20260509035754 73 340 0.0 0.0 0.00 0.00 0.00 24 1006.5
20260509034742 72 29 0.0 0.0 0.00 0.00 0.00 24 1006.5
20260509034251 73 36 0.0 0.0 0.00 0.00 0.00 24 1006.4
20260509033741 73 58 0.0 0.0 0.00 0.00 0.00 24 1006.4
20260509033128 72 12 0.0 0.0 0.00 0.00 0.00 26 1006.4
20260509032746 72 11 0.0 0.0 0.00 0.00 0.00 26 1006.3
20260509031751 72 35 0.0 0.0 0.00 0.00 0.00 24 1006.3
20260509031248 72 314 0.0 0.0 0.00 0.00 0.00 23 1006.4
20260509030746 72 357 0.0 0.0 0.00 0.00 0.00 20 1006.4
20260509030243 73 312 0.0 0.0 0.00 0.00 0.00 20 1006.4
20260509030127 73 299 0.0 0.0 0.00 0.00 0.00 20 1006.4
20260509025744 72 354 0.0 0.0 0.00 0.00 0.00 23 1006.5
20260509025253 72 10 0.0 0.0 0.00 0.00 0.00 23 1006.5
20260509024746 72 324 0.0 0.0 0.00 0.00 0.00 24 1006.5
20260509024235 72 350 0.0 0.0 0.00 0.00 0.00 21 1006.4
20260509023745 72 347 0.0 0.0 0.00 0.00 0.00 22 1006.4
20260509023241 72 340 0.0 0.0 0.00 0.00 0.00 22 1006.4
20260509023145 72 341 0.0 0.0 0.00 0.00 0.00 22 1006.4
20260509022747 71 322 0.0 0.0 0.00 0.00 0.00 23 1006.3
20260509022238 71 313 0.0 0.0 0.00 0.00 0.00 21 1006.3
20260509021751 71 331 0.0 0.0 0.00 0.00 0.00 21 1006.3
20260509021240 70 333 0.0 0.0 0.00 0.00 0.00 23 1006.5
20260509020736 71 316 0.0 0.0 0.00 0.00 0.00 22 1006.5
20260509020254 70 331 0.0 0.0 0.00 0.00 0.00 23 1006.5
20260509015743 70 303 0.0 0.0 0.00 0.00 0.00 23 1006.5
20260509015254 71 327 0.0 0.0 0.00 0.00 0.00 23 1006.5
20260509014750 71 2 0.0 0.0 0.00 0.00 0.00 23 1006.5
20260509014241 71 331 0.0 0.0 0.00 0.00 0.00 23 1006.5
20260509013754 71 300 0.0 0.0 0.00 0.00 0.00 23 1006.5
20260509013254 71 316 0.0 0.0 0.00 0.00 0.00 23 1006.5
20260509013138 71 337 0.0 0.0 0.00 0.00 0.00 24 1006.5
20260509012739 71 350 0.0 0.0 0.00 0.00 0.00 24 1006.4
20260509012248 71 26 0.0 0.0 0.00 0.00 0.00 22 1006.4
20260509011737 72 343 0.0 0.0 0.00 0.00 0.00 23 1006.4
20260509011247 71 316 0.0 0.0 0.00 0.00 0.00 23 1006.2
20260509010742 70 333 0.0 0.0 0.00 0.00 0.00 23 1006.2
20260509010253 70 302 0.0 0.0 0.00 0.00 0.00 24 1006.2
20260509010137 70 4 0.0 0.0 0.00 0.00 0.00 24 1006.2
20260509005740 70 319 0.0 0.0 0.00 0.00 0.00 24 1006.0
20260509005251 70 343 0.0 0.0 0.00 0.00 0.00 23 1006.0
20260509004743 71 290 0.0 0.0 0.00 0.00 0.00 22 1006.0
20260509004251 71 323 0.0 0.0 0.00 0.00 0.00 23 1006.0
20260509003740 70 351 0.0 0.0 0.00 0.00 0.00 24 1006.0
20260509003237 70 358 0.0 0.0 0.00 0.00 0.00 25 1006.0
20260509003141 70 49 0.0 0.0 0.00 0.00 0.00 25 1006.0
20260509002237 71 350 0.0 0.0 0.00 0.00 0.00 24 1005.5
20260509001747 70 307 0.0 0.0 0.00 0.00 0.00 25 1005.5
20260509000736 69 346 0.0 0.0 0.00 0.00 0.00 26 1005.5
20260509000255 69 36 0.0 0.0 0.00 0.00 0.00 26 1005.5
20260509000140 69 52 0.0 0.0 0.00 0.00 0.00 26 1005.5
20260508235239 68 42 0.0 0.0 0.00 0.00 0.00 26 1005.5
20260508234735 69 19 0.0 0.0 0.00 0.00 0.00 24 1005.5
20260508234245 69 346 0.0 0.0 0.00 0.00 0.00 24 1005.3
20260508233236 69 7 0.0 0.0 0.00 0.00 0.00 24 1005.3
20260508233144 69 346 0.0 0.0 0.00 0.00 0.00 23 1005.3